Weather in Shordur

Russia / Mari El Republic     56°34′19″N   49°06′20″E
temp.,
°C
wind,
m/s
gust,
m/s
humid.,
%
clouds,
%
prec.,
mm/h
press.,
hPa
HPBL,
m
2 march, tue
tue200:00−9sw61394100 0.2 1010498
03:00−6sw61494100 1.9 1005658
06:00−3sw61395100 2.1 1000679
09:000wsw51199100 3.3 998705
12:000w51098100 1.8 996718
15:000w61197100 3.1 996771
18:00−2w4119494 0.3 996567
21:00−2wnw5129691 1.3 998796
3 march, wed
wed300:00−4wnw51094100 0.6 998522
03:00−5wnw399598 0.9 999314
06:00−6wnw499599 0.2 999348
09:00−5wnw4992100 0.3 1000566
12:00−4nw5991100 0.3 1001808
15:00−5nw6988100 0.5 1003755
18:00−7nw51090100 0.1 1004768
21:00−7wnw41092100 0.2 1005603
4 march, thu
thu400:00−11w399779 0.1 1004208
03:00−10wsw389689 0.2 1004246
06:00−8wsw399587 0.1 1003275
09:00−6sw4109494 0.3 1002457
12:00−3sw61193100 0.3 999808
15:00−2sw61293100 0.9 996902
18:00−1sw61396100 1.1 9931018
21:00−1wsw71495100 2.9 9911148
5 march, fri
fri500:00−1wsw71594100 0.7 9911149
03:00−6w6148693 1.0 994799
06:00−8w6139296 0.1 997592
09:00−8w5109198 0.1 1001551
12:00−7wnw4789100 0.1 1004602
15:00−7wnw478582 0.1 1006685
18:00−12wnw23947 0.0 100840
21:00−15nw12975 0.0 101120
6 march, sat
sat600:00−16nne119694 0.0 101120
03:00−15e129597 0.0 101023
06:00−15ene2496100 0.0 1008103
09:00−12ne2493100 0.0 1006237
12:00−9nne3591100 0.0 1005332
15:00−9n3689100 0.0 1005391
18:00−14nw239584 0.0 100622
21:00−13wnw229692 0.0 100654